TimeEDT,TemperatureF,Dew PointF,Humidity,Sea Level PressureIn,VisibilityMPH,Wind Direction,Wind SpeedMPH,Gust SpeedMPH,PrecipitationIn,Events,Conditions,WindDirDegrees,DateUTC
12:15 AM,32.0,32.0,100,29.59,1.0,WNW,20.7,29.9,N/A,Snow,Light Snow,290,2012-10-30 04:15:00
12:35 AM,32.0,32.0,100,29.58,0.8,WNW,18.4,26.5,N/A,Snow,Snow,290,2012-10-30 04:35:00
12:55 AM,32.0,32.0,100,29.58,0.8,WNW,15.0,25.3,N/A,Snow,Snow,290,2012-10-30 04:55:00
1:15 AM,32.0,32.0,100,29.57,0.8,West,23.0,29.9,N/A,Snow,Snow,280,2012-10-30 05:15:00
1:35 AM,32.0,32.0,100,29.55,1.0,West,21.9,33.4,N/A,Snow,Snow,280,2012-10-30 05:35:00
1:55 AM,32.0,32.0,100,29.54,1.0,West,19.6,36.8,N/A,Snow,Snow,280,2012-10-30 05:55:00
2:15 AM,32.0,32.0,100,29.53,1.2,West,18.4,32.2,N/A,Snow,Light Snow,280,2012-10-30 06:15:00
2:35 AM,32.0,32.0,100,29.52,1.2,West,16.1,32.2,N/A,Snow,Light Snow,280,2012-10-30 06:35:00
2:55 AM,32.0,32.0,100,29.52,1.0,West,18.4,27.6,N/A,Snow,Snow,280,2012-10-30 06:55:00
3:55 AM,32.0,32.0,100,29.49,1.2,West,17.3,36.8,0.01,Snow,Light Snow,270,2012-10-30 07:55:00
4:15 AM,32.0,32.0,100,29.49,1.0,West,19.6,26.5,N/A,Snow,Light Snow,270,2012-10-30 08:15:00
4:35 AM,32.0,32.0,100,29.48,1.0,West,12.7,32.2,N/A,Snow,Snow,270,2012-10-30 08:35:00
4:55 AM,32.0,32.0,100,29.48,1.0,West,15.0,23.0,N/A,Snow,Snow,280,2012-10-30 08:55:00
5:15 AM,32.0,32.0,100,29.48,0.8,West,16.1,25.3,N/A,Snow,Snow,270,2012-10-30 09:15:00
5:35 AM,32.0,32.0,100,29.49,0.8,WNW,18.4,27.6,0.01,Snow,Snow,290,2012-10-30 09:35:00
5:55 AM,32.0,32.0,100,29.49,0.5,West,11.5,25.3,0.01,Snow,Snow,280,2012-10-30 09:55:00
6:15 AM,32.0,32.0,100,29.49,0.8,West,19.6,25.3,N/A,Snow,Snow,280,2012-10-30 10:15:00
6:35 AM,32.0,32.0,100,29.49,0.8,West,13.8,27.6,N/A,Snow,Snow,280,2012-10-30 10:35:00
6:55 AM,32.0,32.0,100,29.49,0.5,West,18.4,23.0,N/A,Snow,Snow,270,2012-10-30 10:55:00
7:15 AM,32.0,32.0,100,29.49,0.8,West,17.3,27.6,N/A,Snow,Snow,270,2012-10-30 11:15:00
7:35 AM,32.0,32.0,100,29.50,0.5,WNW,12.7,27.6,N/A,Snow,Snow,290,2012-10-30 11:35:00
7:55 AM,32.0,32.0,100,29.50,0.2,West,13.8,20.7,N/A,Snow,Snow,280,2012-10-30 11:55:00
8:15 AM,32.0,32.0,100,29.49,0.8,West,16.1,25.3,N/A,Snow,Light Snow,280,2012-10-30 12:15:00
8:35 AM,32.0,32.0,100,29.50,0.8,West,15.0,20.7,N/A,Snow,Light Snow,270,2012-10-30 12:35:00
8:55 AM,32.0,32.0,100,29.50,0.8,WNW,17.3,25.3,0.01,Snow,Light Snow,290,2012-10-30 12:55:00
9:15 AM,32.0,32.0,100,29.51,0.8,WNW,13.8,26.5,N/A,Snow,Light Snow,290,2012-10-30 13:15:00
9:35 AM,32.0,32.0,100,29.51,0.8,West,15.0,25.3,N/A,Snow,Light Snow,280,2012-10-30 13:35:00
9:55 AM,32.0,32.0,100,29.51,1.0,West,23.0,31.1,N/A,Snow,Light Snow,280,2012-10-30 13:55:00
10:35 AM,33.8,33.8,100,29.50,1.0,West,19.6,29.9,N/A,Snow,Light Snow,280,2012-10-30 14:35:00
10:55 AM,33.8,33.8,100,29.50,0.8,West,15.0,24.2,N/A,Snow,Light Snow,280,2012-10-30 14:55:00
11:15 AM,33.8,33.8,100,29.50,1.0,West,13.8,26.5,N/A,Snow,Light Snow,280,2012-10-30 15:15:00
11:35 AM,33.8,33.8,100,29.51,1.2,West,16.1,27.6,N/A,Snow,Light Snow,280,2012-10-30 15:35:00
11:55 AM,33.8,33.8,100,29.50,1.5,WNW,19.6,29.9,N/A,Snow,Light Snow,290,2012-10-30 15:55:00
12:15 PM,33.8,33.8,100,29.50,2.0,West,17.3,28.8,N/A,Snow,Light Snow,280,2012-10-30 16:15:00
12:35 PM,33.8,33.8,100,29.50,1.5,West,12.7,27.6,N/A,Snow,Light Snow,280,2012-10-30 16:35:00
12:55 PM,35.6,33.8,93,29.50,1.8,West,16.1,27.6,N/A,Snow,Light Snow,280,2012-10-30 16:55:00
1:15 PM,35.6,33.8,93,29.50,2.0,WNW,11.5,18.4,N/A,Snow,Light Snow,290,2012-10-30 17:15:00
1:35 PM,33.8,33.8,100,29.50,2.0,West,15.0,20.7,N/A,Snow,Light Snow,280,2012-10-30 17:35:00
1:55 PM,33.8,33.8,100,29.50,3.0,West,13.8,24.2,N/A,Snow,Light Snow,270,2012-10-30 17:55:00
2:15 PM,33.8,33.8,100,29.50,2.0,West,8.1,20.7,N/A,Snow,Light Snow,270,2012-10-30 18:15:00
2:35 PM,33.8,33.8,100,29.50,2.5,West,15.0,24.2,N/A,Snow,Light Snow,270,2012-10-30 18:35:00
2:55 PM,33.8,33.8,100,29.50,3.0,West,10.4,20.7,N/A,Snow,Light Snow,270,2012-10-30 18:55:00
3:15 PM,33.8,33.8,100,29.51,4.0,West,12.7,20.7,N/A,Snow,Light Snow,270,2012-10-30 19:15:00
3:35 PM,33.8,33.8,100,29.52,2.5,West,13.8,18.4,N/A,Snow,Light Snow,270,2012-10-30 19:35:00
3:55 PM,33.8,33.8,100,29.52,2.5,West,12.7,21.9,N/A,Snow,Light Snow,270,2012-10-30 19:55:00
4:15 PM,33.8,33.8,100,29.53,3.0,West,15.0,21.9,N/A,Snow,Light Snow,270,2012-10-30 20:15:00
4:35 PM,33.8,33.8,100,29.53,4.0,West,13.8,19.6,N/A,Snow,Light Snow,270,2012-10-30 20:35:00
4:55 PM,33.8,33.8,100,29.54,5.0,West,10.4,21.9,N/A,,Overcast,270,2012-10-30 20:55:00
5:15 PM,33.8,33.8,100,29.55,4.0,West,15.0,20.7,N/A,,Overcast,270,2012-10-30 21:15:00
5:35 PM,33.8,33.8,100,29.56,2.0,West,10.4,24.2,N/A,Snow,Light Snow,270,2012-10-30 21:35:00
5:55 PM,33.8,33.8,100,29.56,3.0,West,11.5,18.4,N/A,,Overcast,270,2012-10-30 21:55:00
6:15 PM,33.8,33.8,100,29.57,3.0,West,11.5,16.1,N/A,,Overcast,260,2012-10-30 22:15:00
6:35 PM,33.8,33.8,100,29.58,3.0,WSW,12.7,25.3,N/A,Snow,Light Snow,250,2012-10-30 22:35:00
6:55 PM,33.8,33.8,100,29.59,4.0,WSW,15.0,19.6,N/A,,Overcast,250,2012-10-30 22:55:00
7:15 PM,33.8,33.8,100,29.61,3.0,West,15.0,19.6,N/A,Snow,Light Snow,260,2012-10-30 23:15:00
7:35 PM,33.8,33.8,100,29.61,3.0,West,11.5,20.7,N/A,Snow,Light Snow,260,2012-10-30 23:35:00
7:55 PM,33.8,33.8,100,29.62,3.0,West,15.0,21.9,N/A,Snow,Light Snow,260,2012-10-30 23:55:00
8:15 PM,33.8,33.8,100,29.63,4.0,West,13.8,18.4,N/A,Snow,Light Snow,260,2012-10-31 00:15:00
8:35 PM,33.8,33.8,100,29.63,4.0,WSW,11.5,20.7,N/A,Snow,Light Snow,250,2012-10-31 00:35:00
8:55 PM,33.8,33.8,100,29.64,5.0,West,9.2,-,N/A,,Overcast,260,2012-10-31 00:55:00
9:15 PM,33.8,33.8,100,29.65,5.0,West,12.7,19.6,N/A,Snow,Light Snow,260,2012-10-31 01:15:00
9:35 PM,33.8,33.8,100,29.65,5.0,West,15.0,21.9,N/A,,Overcast,260,2012-10-31 01:35:00
9:55 PM,33.8,33.8,100,29.66,5.0,West,11.5,17.3,N/A,,Overcast,260,2012-10-31 01:55:00
10:15 PM,33.8,33.8,100,29.66,4.0,West,12.7,19.6,N/A,Snow,Light Snow,260,2012-10-31 02:15:00
10:35 PM,33.8,33.8,100,29.66,5.0,West,10.4,19.6,N/A,,Overcast,260,2012-10-31 02:35:00
10:55 PM,33.8,33.8,100,29.66,4.0,West,12.7,18.4,N/A,,Overcast,270,2012-10-31 02:55:00
11:15 PM,33.8,33.8,100,29.66,4.0,West,9.2,-,N/A,Snow,Light Snow,270,2012-10-31 03:15:00
11:35 PM,33.8,33.8,100,29.66,5.0,West,10.4,17.3,N/A,,Overcast,270,2012-10-31 03:35:00
11:55 PM,33.8,33.8,100,29.66,4.0,West,10.4,20.7,N/A,Snow,Light Snow,260,2012-10-31 03:55:00